Miscellaneous Local Product
Issued by NWS Hastings, NE

Home | Current Version | Previous Version | Graphics & Text | Print | Product List | Glossary On
Versions: 1 2 3 4 5 6 7 8 9 10 11 12 13 14 15 16 17 18 19 20 21 22 23 24 25 26 27 28 29 30 31 32 33 34 35 36 37 38 39 40 41 42 43 44 45 46 47 48 49 50
218
AXUS43 KGID 081002
MISGRI

GID CWA HOURLY WEATHER ROUNDUP
NATIONAL WEATHER SERVICE HASTINGS NE
400 AM CST MON FEB 08 2016

NOTE: "FAIR" INDICATES FEW OR NO CLOUDS BELOW 12,000 FEET WITH NO
SIGNIFICANT WEATHER AND/OR OBSTRUCTIONS TO VISIBILITY.

...SOUTH CENTRAL NEBRASKA...

CITY           SKY/WX    TMP DP  RH WIND       PRES   REMARKS
GRAND ISLAND   PTCLDY    30  17  58 NW26      30.11S WCI  16
HASTINGS       CLEAR     29  17  61 NW23G32   30.11S WCI  15
ORD            CLEAR     29  17  61 NW24G41   30.11S WCI  15
YORK           CLOUDY    32  19  59 NW36G45   30.05F WCI  16
AURORA         MOCLDY    31  18  58 NW35G44   30.09R WCI  15
LEXINGTON      CLEAR     29  16  57 NW25G31   30.18F WCI  14
HOLDREGE       CLEAR     28  15  59 NW18      30.17S WCI  15
HEBRON         CLOUDY    33  20  59 NW18G26   30.11S WCI  22

...NEBRASKA PANHANDLE...

CITY           SKY/WX    TMP DP  RH WIND       PRES   REMARKS
CHADRON        CLEAR     24  13  62 W17       30.35R WCI  11
ALLIANCE       CLEAR     21  11  65 W18       30.28F WCI   6
SCOTTSBLUFF    CLEAR     23  11  60 W14       30.35F WCI  11
SIDNEY         CLEAR     24  10  55 NW23      30.30F WCI   9

...WESTERN AND NORTH CENTRAL NEBRASKA...

CITY           SKY/WX    TMP DP  RH WIND       PRES   REMARKS
VALENTINE      CLEAR     27  16  63 NW24G33   30.19F WCI  12
AINSWORTH      CLEAR     28  17  61 NW28G39   30.16S WCI  13
ONEILL         MOCLDY    29  19  64 NW31G45   30.10S WCI  14
BROKEN BOW     CLEAR     29  16  58 NW29G40   30.15R WCI  14
IMPERIAL       CLEAR     25  12  58 NW16G26   30.29S WCI  12
NORTH PLATTE   CLEAR     25  13  60 W15       30.24R WCI  13
MCCOOK         CLEAR     24  13  62 NW15      30.27R WCI  11

...EASTERN NEBRASKA...

CITY           SKY/WX    TMP DP  RH WIND       PRES   REMARKS
NORFOLK        CLOUDY    29  19  66 N28G45    30.03R WCI  14
SO SIOUX CITY  FLURRIES  27  18  69 N32G39    29.99S WCI  10
TEKAMAH        LGT SNOW  30  21  69 NW20      30.00S WCI  18
COLUMBUS       CLOUDY    30  18  59 NW17G24   30.06R WCI  18
ALBION         CLOUDY    31  19  62 NW28G37   30.05R WCI  16
OMAHA EPPLEY   CLOUDY    29  21  72 NW21G28   30.00R WCI  16
OFFUTT AFB     CLOUDY    29  19  66 NW21      29.99S WCI  16
MILLARD        PTCLDY    30  19  64 NW17G30   30.01S WCI  18
LINCOLN        CLOUDY    31  24  75 N18       30.06R WCI  19
NEBRASKA CITY  CLOUDY    31  21  66 N25G35    30.01R WCI  17
BEATRICE       CLOUDY    33  22  63 NW26      30.04F WCI  20
FALLS CITY     MOCLDY    33  22  63 NW22G32   30.00S WCI  21

...NORTHERN KANSAS...

CITY           SKY/WX    TMP DP  RH WIND       PRES   REMARKS
GOODLAND       CLEAR     25  10  53 NW20G29   30.31S WCI  11
HILL CITY      CLEAR     28  16  60 NW21      30.26S WCI  15
NORTON         SUNNY     25  12  58 W21       30.22  WCI  10
PHILLIPSBURG   CLEAR     28  16  59 W18G24    30.22F WCI  16
SMITH CENTER   CLEAR     28  18  64 NW21G28   30.19F WCI  15
BELOIT         PTCLDY    32  18  55 NW17G26   30.17S WCI  21
HAYS           CLEAR     28  10  47 NW21G28   30.25S WCI  15
RUSSELL        CLEAR     30  17  58 NW20G29   30.22S WCI  17
CONCORDIA      CLOUDY    33  19  56 NW18G25   30.12F WCI  22
SALINA         CLOUDY    35  17  47 NW21      30.17F WCI  24
TOPEKA         CLOUDY    36  17  46 W17G23    30.04F WCI  26



USA.gov is the U.S. government's official web portal to all federal, state and local government web resources and services.